Location: Lesignano de� Bagni
(44.6500°N, 10.3000°E)
Time: 21:16:37
(UTC+00:00)

Cosmos 1354 Rocket - Pass Details

Date: 03 March 2021
Orbit: 765 x 782 km, 74.0° (Epoch: 17 April)

Event Time Altitude Azimuth Distance (km) Brightness Sun altitude
Rises 18:19:34 0° 340° (NNW) 3,249 7.6 -13.3°
Reaches altitude 10° 18:21:59 10° 343° (NNW) 2,317 6.8 -13.7°
Maximum altitude 18:27:13 71° 67° (ENE) 812 3.9 -14.6°
Drops below altitude 10° 18:32:25 10° 152° (SSE) 2,296 6.1 -15.6°
Enters shadow 18:33:31 - 153° (SSE) 2,719 6.5 -15.7°
